Showing default

LUCH 1, 23680

Orbit data source: Space-Track

LUCH 1, 23680 is a payload satellite owned by VKS (CIS) in GEO that was launched on Wed, 11 Oct 1995 UTC via a PROTON-K/DM-2 launch vehicle from the Tyuratam Missile And Space Complex (TTMTR). Payload-class satellites include a variety of spacecraft equipped with specific instruments for various scientific and technological missions. These include communications satellites like Starlink; space stations such as the ISS; scientific satellites like the Hubble; Earth observation satellites from companies like Planet Labs, Umbra, and HawkEye 360; GPS; miniature CubeSats for education and research; and military/defense satellites.

Not visible in the next 10 days
Identifier
23680, 1995-054A
Orbit
GEO
Country
Flag of CISCIS
Related business
Manufacturer
NPO PM
Mission
Defense Communications
Bus & Motor
KAUR-4 AL'TAIR, Unknown motor
Mass
2,400 kg wet, ~2,200 kg dry
Launch date (UTC)
1995-10-11 (30 years ago)
Launch vehicle
PROTON-K/DM-2
Launch site
Tyuratam Missile And Space Complex (TTMTR)
Object type
Payload
Rocket body
Debris
Shape & HBR
Cyl + 2 Pan + 2 Dish, 8.0 m
Radar Cross Section
40.926 m², Large (>1 m²)

Expand to show TLE details & history
Last TLE update: 12 hours ago

TLE from 12 hours ago
0 LUCH 1
1 23680U 95054A   25260.87282156 -.00000149  00000-0  00000-0 0  9991
2 23680  14.9956   1.3921 0008425 152.8100 234.7165  1.00273711109625
Epoch: 2025-09-17T20:56Z
TLE epoch observation values (Epoch: 2025-09-17T20:56:51.782Z)
Latitude
6.84699°
Longitude
76.76935°
Altitude
35,805.729 km
Speed
3.073 km/s
True Right ascension
01h 52m 06s
True Declination
6° 50' 24"
Sunlit
Object was in daylight at epoch
Visualization orbit readout
Latitude
Unknown
Longitude
Unknown
Altitude
Unknown
Speed
Unknown
Apparent Right ascension
Unknown
Apparent Declination
Unknown
Sunlit
N/A
Visualization observer readout
Local Sidereal Time
01:45:34
Azimuth
Unknown
Elevation
Unknown
Doppler factor
Unknown
Orbital elements
Apogee altitude
35,822.545 km
Perigee altitude
35,751.496 km
Semi-major axis
42,165.158 km
Eccentricity
0.00084
Inclination
14.9956°
RAAN
1.3921°
Arg. of periapsis
152.81°
True anomaly
234.63774°
Mean anomaly
234.7165°
Eccentric anomaly
234.67711°
Mean motion
0.25068 °/min
Orbital period
1,436.12 mins
BSTAR
0
Loading maneuver chart data...
Computing Atmospheric mass density...
Loading historical data...
Loading historical data...
Loading historical data...
Loading historical data...
Loading historical data...
Loading historical data...
Loading historical data...

Documentation

Showing up to 5 results
|